Regional Weather Roundup
Issued by NWS

Home | Current Version | Previous Version | Graphics & Text | Print | Product List | Glossary On
Versions: 1 2 3 4 5 6 7 8 9 10 11 12 13 14 15 16 17 18 19 20 21 22 23 24 25 26 27 28 29 30 31 32 33 34 35 36 37 38 39 40 41 42 43 44 45 46 47 48 49 50
000
ASUS43 KFSD 221410
RWRSD

WEATHER ROUNDUP FOR SOUTH DAKOTA
NATIONAL WEATHER SERVICE SIOUX FALLS SD
800 AM CST MON JAN 22 2018

NOTE: "FAIR" INDICATES FEW OR NO CLOUDS BELOW 12,000 FEET WITH NO
SIGNIFICANT WEATHER AND/OR OBSTRUCTIONS TO VISIBILITY.


SDZ001>005-009-010-012>017-221500-
NORTHWEST AND NORTH CENTRAL SOUTH DAKOTA

CITY           SKY/WX    TMP DP  RH WIND       PRES   REMARKS
BUFFALO          N/A     16  11  80 W10       29.91S WCI   4
FAITH            N/A     17  14  88 NW9       29.97S WCI   6
MOBRIDGE       FOG       21  18  88 N9        29.97S VSB 1/2 WCI  11
$$

SDZ012>016-024>037-041>051-057-063-072>074-221500-
SOUTHWEST AND SOUTH CENTRAL SOUTH DAKOTA

CITY           SKY/WX    TMP DP  RH WIND       PRES   REMARKS
RAPID CTY ARPT CLEAR     17  11  77 NW5       29.97S WCI  10
PIERRE         CLOUDY    21  21 100 N13       29.97S FOG     WCI   9
CUSTER         PTCLDY    15   7  70 S3        29.90F
ELLSWORTH AFB  CLEAR     21  14  73 W6        29.96S WCI  13
PHILIP         PTCLDY    16  14  92 W7        29.98F WCI   6
PINE RIDGE     PTCLDY    14  11  87 W7        29.99S WCI   4
SPEARFISH        N/A     21  10  63 W9        29.98S WCI  11
WINNER         LGT SNOW  25  23  92 N14G23    29.93R FOG     WCI  13
$$

SDZ004>011-016>023-039-040-221500-
NORTHEAST SOUTH DAKOTA

CITY           SKY/WX    TMP DP  RH WIND       PRES   REMARKS
ABERDEEN       CLOUDY    23  21  92 N16       30.00R WCI  10
WATERTOWN      CLOUDY    23  22  96 N22       29.85S FOG     WCI   8
BROOKINGS      FLURRIES  24  22  91 N21G31    29.78F WCI   9
SISSETON         N/A     25  24  96 N18G25    29.95S WCI  11
$$

SDZ017-020-022-023-036>040-048>070-221500-
SOUTHEAST SOUTH DAKOTA

CITY           SKY/WX    TMP DP  RH WIND       PRES   REMARKS
SIOUX FALLS    LGT SNOW  26  25  96 N29G44    29.70R VSB 1   WCI  10
HURON          CLOUDY    22  21  96 N22G31    29.90F FOG     WCI   6
CHAMBERLAIN    CLOUDY    24  24  98 NW17G24   29.91F WCI  11
MITCHELL       CLOUDY    23  22  96 N29G38    29.84F BLWGSNOWWCI   6
YANKTON        SNOW      26  24  92 NW26G38   29.71S VSB 1/2 WCI  10
$$

ABBREVIATIONS USED IN REMARKS
   TC - TEMPERATURE IN CELSIUS
  WCI - WIND CHILL INDEX
   HX - HEAT INDEX
  VSB - VISIBILITY




USA.gov is the U.S. government's official web portal to all federal, state and local government web resources and services.